Simultaneous Nadir Overpasses (SNOs) Predictions

Prediction of SNOs between LANDSAT-8 and METOP-A Satellite Orbit:

Table of predicted SNOs for the next 14.0 days since TLE Epoch: 11/23/2019
Index Date (LANDSAT-8) Time (LANDSAT-8) Lat,Lon (LANDSAT-8) SZA (LANDSAT-8 ) Date (METOP-A) Time (METOP-A) Lat,Lon (METOP-A) SZA (METOP-A ) Distance(km) Time Diff (sec)
1 11/24/2019 02:22:25 -81.48, 10.88 75.19 11/24/2019 02:21:14 -81.48, 11.07 75.20 3.22 71
2 11/24/2019 03:11:51 81.49, 178.63 104.84 11/24/2019 03:11:54 81.48, 178.82 104.85 3.11 3
3 11/26/2019 21:56:39 -81.49, 77.49 74.64 11/26/2019 21:55:37 -81.48, 77.65 74.66 2.82 62
4 11/26/2019 22:46:06 81.47,-115.18 105.33 11/26/2019 22:46:18 81.48,-115.04 105.35 2.35 12
5 11/29/2019 17:30:54 -81.48, 143.69 74.21 11/29/2019 17:30:01 -81.48, 143.82 74.21 2.07 53
6 11/29/2019 18:20:20 81.48, -48.61 105.81 11/29/2019 18:20:41 81.48, -48.51 105.83 1.63 21
7 12/02/2019 13:05:07 -81.48,-149.73 73.77 12/02/2019 13:04:23 -81.48,-149.63 73.79 1.56 44
8 12/02/2019 13:54:33 81.49, 17.95 106.24 12/02/2019 13:55:03 81.48, 18.01 106.26 1.27 30
9 12/05/2019 08:39:22 -81.47, -83.55 73.45 12/05/2019 08:38:47 -81.48, -83.50 73.46 1.34 35




NCC Satellite Simultaneous Nadir Overpasses (SNOs) Prediction Service
